Date String (YYYY-MM-DD hh:mm:ss) UTC,Instrument flags,Ambient pressure (hPa),Sample flow (lpm),Bypass flow (lpm),Sample temperature (°C),Ambient temperature (°C),ASC tube jacket temperature (°C),LED temperature (°C),Box temperature (°C),Sample RH (%),Span deviation,Mass concentration (μg/m³),Mass concentration (μg/m³),Mass concentration (μg/m³)
DateTimeUTC,F1_M11,P_M11,Q1_M11,Q2_M11,T1_M11,T2_M11,T3_M11,T4_M11,T5_M11,U1_M11,ZSPAN_M11,X2_M11,X0_M11,X1_M11
2023-01-25 08:00:00,,0824.5,5.02,0.00,22.5,20.1,00.0,31.4,24.0,09.6,-001.6,0012.94,0022.41,0012.17
2023-01-25 08:01:00,,0824.4,5.00,0.00,22.4,20.0,00.0,31.4,23.9,09.7,-001.6,0012.96,0022.59,0012.24
2023-01-25 08:02:00,,0824.4,5.00,0.00,22.4,20.8,00.0,31.4,24.0,09.7,-001.6,0012.99,0022.16,0012.27
2023-01-25 08:03:00,,0824.6,5.00,0.00,22.5,22.0,00.0,31.3,24.3,09.7,-001.6,0013.02,0022.16,0012.31
2023-01-25 08:04:00,,0824.6,4.99,0.00,22.6,22.7,00.0,31.4,24.5,09.6,-001.4,0013.08,0022.31,0012.35
2023-01-25 08:05:00,,0824.6,4.99,0.00,22.7,22.4,00.0,31.4,24.5,09.6,-001.3,0013.20,0022.48,0012.41
2023-01-25 08:06:00,,0824.5,4.98,0.00,22.6,21.9,00.0,31.4,24.4,09.7,-001.4,0013.24,0022.28,0012.45
2023-01-25 08:07:00,,0824.4,5.01,0.00,22.6,21.4,00.0,31.4,24.3,09.7,-001.4,0013.29,0021.59,0012.55
2023-01-25 08:08:00,,0824.7,5.00,0.00,22.6,21.0,00.0,31.4,24.2,09.7,-001.4,0013.36,0021.65,0012.64
2023-01-25 08:09:00,,0824.6,4.99,0.00,22.5,20.5,00.0,31.4,24.0,09.7,-001.6,0013.41,0021.21,0012.73
2023-01-25 08:10:00,,0824.4,5.00,0.00,22.4,20.0,00.0,31.3,23.8,09.7,-001.7,0013.40,0020.94,0012.75
2023-01-25 08:11:00,,0824.4,5.02,0.00,22.3,19.7,00.0,31.3,23.7,09.7,-001.8,0013.44,0020.76,0012.80
2023-01-25 08:12:00,,0824.4,4.98,0.00,22.2,19.5,00.0,31.2,23.5,09.7,-001.9,0013.53,0020.71,0012.87
2023-01-25 08:13:00,,0824.4,4.99,0.00,22.1,19.3,00.0,31.2,23.4,09.8,-001.9,0013.60,0020.60,0012.94
2023-01-25 08:14:00,,0824.4,5.02,0.00,22.1,19.2,00.0,31.1,23.3,09.9,-001.9,0013.70,0020.57,0013.02
2023-01-25 08:15:00,,0824.4,5.00,0.00,22.0,19.9,00.0,31.1,23.4,09.9,-001.9,0013.80,0020.31,0013.12
2023-01-25 08:16:00,,0824.5,4.99,0.00,22.1,21.3,00.0,31.0,23.7,09.9,-001.7,0013.84,0020.08,0013.21
2023-01-25 08:17:00,,0824.5,4.99,0.00,22.2,22.3,00.0,31.0,24.0,09.9,-001.6,0013.89,0020.17,0013.27
2023-01-25 08:18:00,,0824.6,4.99,0.00,22.3,22.2,00.0,31.1,24.1,09.9,-001.5,0013.89,0020.36,0013.25
2023-01-25 08:19:00,,0824.6,5.01,0.00,22.2,21.5,00.0,31.1,23.9,09.8,-001.5,0013.85,0020.25,0013.21
2023-01-25 08:20:00,,0824.8,5.02,0.00,22.2,20.8,00.0,31.1,23.7,09.8,-001.3,0013.85,0020.44,0013.15
2023-01-25 08:21:00,,0824.6,5.01,0.00,22.1,20.3,00.0,31.0,23.5,09.7,-001.1,0013.85,0020.63,0013.12
2023-01-25 08:22:00,,0824.6,4.98,0.00,22.0,20.0,00.0,31.0,23.5,09.8,-001.1,0013.76,0020.68,0013.04
2023-01-25 08:23:00,,0824.7,5.00,0.00,22.0,19.7,00.0,31.0,23.4,09.8,-001.1,0013.72,0020.92,0012.98
2023-01-25 08:24:00,,0824.8,4.96,0.00,21.9,19.4,00.0,30.9,23.2,09.8,-001.1,0013.69,0021.74,0012.95
2023-01-25 08:25:00,,0824.6,4.98,0.00,21.8,19.4,00.0,30.9,23.2,09.9,-001.1,0013.65,0022.03,0012.91
2023-01-25 08:26:00,,0824.7,5.01,0.00,21.8,19.4,00.0,30.8,23.2,09.9,-001.0,0013.57,0021.62,0012.85
2023-01-25 08:27:00,,0824.6,5.01,0.00,21.8,20.4,00.0,30.8,23.4,09.9,-001.0,0013.51,0021.52,0012.78
2023-01-25 08:28:00,,0824.8,5.00,0.00,21.9,21.8,00.0,30.8,23.7,09.7,-001.2,0013.39,0021.10,0012.66
2023-01-25 08:29:00,,0824.5,5.00,0.00,22.0,22.6,00.0,30.8,24.0,09.7,-001.2,0013.28,0020.67,0012.58
2023-01-25 08:30:00,,0824.9,4.99,0.00,22.1,22.2,00.0,30.8,24.0,09.7,-001.2,0013.27,0020.87,0012.57
2023-01-25 08:31:00,,0824.8,5.01,0.00,22.1,21.6,00.0,30.8,23.9,09.7,-001.2,0013.32,0020.96,0012.60
2023-01-25 08:32:00,,0824.6,5.00,0.00,22.0,21.0,00.0,30.8,23.7,09.7,-001.3,0013.32,0020.73,0012.61
2023-01-25 08:33:00,,0824.5,5.01,0.00,22.0,20.5,00.0,30.8,23.6,09.7,-001.3,0013.33,0020.83,0012.62
2023-01-25 08:34:00,,0824.7,5.00,0.00,21.9,20.1,00.0,30.8,23.5,09.8,-001.2,0013.37,0020.38,0012.68
2023-01-25 08:35:00,,0824.8,4.99,0.00,21.9,19.8,00.0,30.8,23.3,09.9,-001.2,0013.39,0019.80,0012.72
2023-01-25 08:36:00,,0825.0,5.01,0.00,21.8,19.5,00.0,30.8,23.2,10.0,-001.2,0013.45,0019.31,0012.76
2023-01-25 08:37:00,,0824.8,4.99,0.00,21.7,19.3,00.0,30.7,23.1,10.0,-001.3,0013.49,0019.38,0012.81
2023-01-25 08:38:00,,0825.1,5.00,0.00,21.7,19.2,00.0,30.7,23.1,10.0,-001.5,0013.52,0019.38,0012.87
2023-01-25 08:39:00,,0824.7,5.01,0.00,21.6,19.8,00.0,30.6,23.2,10.0,-001.5,0013.59,0019.46,0012.96
2023-01-25 08:40:00,,0824.8,5.00,0.00,21.8,21.3,00.0,30.6,23.5,09.9,-001.6,0013.63,0019.56,0013.00
2023-01-25 08:41:00,,0824.8,4.99,0.00,21.9,22.3,00.0,30.6,23.8,09.9,-001.6,0013.69,0019.63,0013.05
2023-01-25 08:42:00,,0824.9,5.00,0.00,22.0,22.1,00.0,30.7,23.9,09.9,-001.7,0013.68,0019.57,0013.07
2023-01-25 08:43:00,,0824.7,4.99,0.00,22.0,21.6,00.0,30.7,23.8,09.9,-001.7,0013.73,0020.02,0013.14
2023-01-25 08:44:00,,0824.5,5.01,0.00,22.0,21.1,00.0,30.7,23.7,10.0,-001.8,0013.87,0020.13,0013.24
2023-01-25 08:45:00,,0824.5,4.99,0.00,21.9,20.6,00.0,30.7,23.5,10.0,-001.9,0013.93,0020.28,0013.28
2023-01-25 08:46:00,,0824.5,5.01,0.00,21.9,20.2,00.0,30.7,23.4,10.0,-001.9,0013.98,0020.37,0013.33
2023-01-25 08:47:00,,0824.8,5.01,0.00,21.8,19.9,00.0,30.7,23.3,10.1,-001.9,0013.97,0020.27,0013.35
2023-01-25 08:48:00,,0825.0,5.01,0.00,21.8,19.7,00.0,30.7,23.3,10.1,-002.0,0013.99,0020.80,0013.38
2023-01-25 08:49:00,,0824.8,4.99,0.00,21.7,19.6,00.0,30.7,23.2,10.1,-002.0,0014.05,0021.37,0013.43
2023-01-25 08:50:00,,0825.0,5.00,0.00,21.7,19.4,00.0,30.6,23.2,10.2,-001.9,0014.15,0021.77,0013.52
2023-01-25 08:51:00,,0824.7,5.00,0.00,21.7,19.7,00.0,30.6,23.2,10.2,-001.8,0014.24,0022.38,0013.61
2023-01-25 08:52:00,,0824.5,5.01,0.00,21.7,21.1,00.0,30.6,23.5,10.2,-001.8,0014.22,0022.76,0013.62
2023-01-25 08:53:00,,0824.6,4.99,0.00,21.9,22.3,00.0,30.6,23.8,10.1,-001.7,0014.21,0022.78,0013.61
2023-01-25 08:54:00,,0824.9,5.00,0.00,22.0,22.5,00.0,30.6,23.9,10.0,-001.8,0014.21,0022.36,0013.61
2023-01-25 08:55:00,,0824.9,5.01,0.00,22.0,21.9,00.0,30.7,23.9,10.0,-001.6,0014.18,0022.29,0013.61
2023-01-25 08:56:00,,0824.9,5.00,0.00,22.0,21.3,00.0,30.7,23.8,10.0,-001.6,0014.15,0022.20,0013.61
2023-01-25 08:57:00,,0824.9,5.00,0.00,22.0,20.8,00.0,30.7,23.6,10.0,-001.7,0014.10,0022.18,0013.58
2023-01-25 08:58:00,,0824.6,4.98,0.00,21.9,20.3,00.0,30.7,23.5,10.0,-001.7,0014.15,0022.36,0013.61
2023-01-25 08:59:00,,0824.6,5.00,0.00,21.9,20.1,00.0,30.7,23.5,10.1,-001.5,0014.17,0022.39,0013.62
